Regional Weather Roundup
Issued by NWS

Home | Current Version | Previous Version | Graphics & Text | Print | Product List | Glossary On
Versions: 1 2 3 4 5 6 7 8 9 10 11 12 13 14 15 16 17 18 19 20 21 22 23 24 25 26 27 28 29 30 31 32 33 34 35 36 37 38 39 40 41 42 43 44 45 46 47 48 49 50
000
ASUS43 KMPX 300710
RWRMN
WEATHER ROUNDUP FOR MINNESOTA
NATIONAL WEATHER SERVICE TWIN CITIES/CHANHASSEN MN
200 AM CDT SAT AUG 30 2014


NOTE: "FAIR" INDICATES FEW OR NO CLOUDS BELOW 12,000 FEET WITH NO
SIGNIFICANT WEATHER AND/OR OBSTRUCTIONS TO VISIBILITY. N/A MEANS
CURRENT SKY AND/OR WEATHER CONDITIONS ARE NOT AVAILABLE.

MNZ060>063-068>070-300800-
   Twin Cities Metro

CITY           SKY/WX    TMP DP  RH WIND       PRES   REMARKS
TWIN CITIES    RAIN      68  67  96 CALM      29.76F FOG
ST PAUL        HVY RAIN  67  67 100 NW7       29.76F FOG
CRYSTAL        LGT RAIN  70  67  90 N5        29.75F
BLAINE         LGT RAIN  70  70 100 N6        29.77F
LAKEVILLE      RAIN      66  64  94 NW5       29.76S
EDEN PRAIRIE   LGT RAIN  69  67  93 N3        29.75F
SOUTH ST PAUL  RAIN      68  66  94 CALM      29.76S
LAKE ELMO      RAIN      66  66 100 NW7       29.77F
$$
MNZ001>005-007-008-013>017-022>024-027-028-300800-
   Northwest Minnesota

CITY           SKY/WX    TMP DP  RH WIND       PRES   REMARKS
BEMIDJI        CLOUDY    59  56  90 N10       29.86S
HALLOCK        CLEAR     52  48  87 N7        29.93S
ROSEAU         CLEAR     52  46  82 N5        29.92S
WARROAD        CLEAR     54  50  87 N9        29.91S
THIEF RVR FALL MOCLDY    55  52  88 N10       29.90F
CROOKSTON      PTCLDY    55  52  88 N9        29.91S
FOSSTON        CLOUDY    57  55  94 N8        29.89S
DETROIT LAKES  CLOUDY    61  59  94 N10       29.87S
MOORHEAD       CLOUDY    61  61 100 N12       29.88S
PARK RAPIDS    CLOUDY    65  62  90 N13       29.83S
MAHNOMEN       CLOUDY    58  57  96 N8        29.87S
$$
MNZ006-009>011-018-025>026-300800-
   North Central Minnesota

CITY           SKY/WX    TMP DP  RH WIND       PRES   REMARKS
BAUDETTE       PTCLDY    57  55  93 N8        29.88R
FLAG ISLAND    CLEAR     59  55  88 N13       29.90S
INTL FALLS     CLOUDY    58  54  86 N13       29.85R
WASKISH        CLOUDY    57  55  94 N9        29.87S
BIG FORK       CLOUDY    63  61  94 N6        29.83F FOG
LONGVILLE      CLOUDY    64  63  94 CALM      29.82S
GRAND RAPIDS   CLOUDY    64  61  88 N5        29.82S
CRANE LAKE     CLOUDY    61  59  94 N7        29.84S
ORR            CLOUDY    61  59  94 CALM      29.80S
COOK           CLOUDY    61  61 100 CALM      29.82F
WALKER         CLOUDY    61  60  97 N3        29.84R
$$
MNZ012-019>021-037-300800-
   Northeast Minnesota

CITY           SKY/WX    TMP DP  RH WIND       PRES   REMARKS
DULUTH         CLOUDY    63  60  90 CALM      29.80S
ELY            CLOUDY    57  57 100 CALM      29.82S
HIBBING        CLOUDY    61  59  93 CALM      29.82S FOG
EVELETH        FOG       59  59 100 CALM      29.83S VSB 1/4
DULUTH HARBOR  CLOUDY    63  61  94 CALM      29.79F
TWO HARBORS    CLOUDY    61  55  82 CALM      29.79S
SILVER BAY     CLOUDY    59  59 100 CALM      29.79S
GRAND MARAIS     N/A     60  58  92 CALM      29.78S
G MARAIS ARPRT CLOUDY    55  52  88 CALM      29.82R
$$
MNZ029>031-032-039>041-046>048-054>057-064-300800-
   West Central Minnesota

CITY           SKY/WX    TMP DP  RH WIND       PRES   REMARKS
FERGUS FALLS   CLOUDY    63  61  94 N9        29.85R
WHEATON        CLOUDY    59  57  94 NW10      29.88S
MORRIS         CLOUDY    63  63 100 NW14      29.83S
ALEXANDRIA     CLOUDY    66  64  93 NW8       29.84S
ELBOW LAKE     CLOUDY    62  62  99 NW8       29.84S
WADENA         CLOUDY    63  63 100 NW6       29.83S
GLENWOOD       CLEAR     64  63  94 NW3       29.83S
APPLETON       CLOUDY    66  63  88 NW9G17    29.83S
BENSON         CLOUDY    64  64 100 N5        29.82S
ORTONVILLE     CLOUDY    63  57  82 N10       29.85F
MADISON        PTCLDY    66  64  94 NW15      29.83F
WILLMAR        MOCLDY    66  64  94 N3        29.82F
$$
MNZ033>034-036-042>043-049>051-058-059-300800-
   Central Minnesota

CITY           SKY/WX    TMP DP  RH WIND       PRES   REMARKS
ST CLOUD       MOCLDY    68  66  93 CALM      29.79S
SAUK CENTRE    FAIR      63  61  94 W5        29.82S
PAYNESVILLE    RAIN      62  63 100 W6        29.82S
AITKIN         HAZE      64  57  77 CALM      29.80S VSB 3/4
PINE RIVER     CLOUDY    63  63 100 CALM      29.85S FOG
BRAINERD       CLOUDY    64  64 100 W3        29.82R
STAPLES        PTCLDY    63  61  94 CALM      29.82S
LONG PRAIRIE   CLOUDY    63  63 100 NW3       29.82S
LITTLE FALLS   CLOUDY    64  63  94 CALM      29.80S FOG
LITCHFIELD     MOCLDY    68  68 100 NW6       29.80F FOG
BUFFALO        CLOUDY    68  65  92 NE3       29.79F
MAPLE LAKE     CLOUDY    68  68  98 CALM      29.80F
$$
MNZ037-044-045-052-053-300800-
   East Central Minnesota

CITY           SKY/WX    TMP DP  RH WIND       PRES   REMARKS
PRINCETON      CLOUDY    66  66 100 CALM      29.79F
MORA           CLOUDY    64  64 100 CALM      29.81S
CAMBRIDGE      CLOUDY    70  61  73 CALM      29.76F
RUSH CITY      CLOUDY    66  64  95 N3        29.78F
MOOSE LAKE     FOG       63  61  94 CALM      29.79S VSB 1
HINCKLEY       CLOUDY    64  64 100 N3        29.79S
CLOQUET        CLOUDY    63  61  94 CALM      29.80S
MCGREGOR       CLOUDY    63  61  94 CALM      29.80F VSB 1/4
$$
MNZ071>073-080-081-089-090-097-098-300800-
   Southwest Minnesota

CITY           SKY/WX    TMP DP  RH WIND       PRES   REMARKS
MONTEVIDEO     MOCLDY    64  64 100 N10       29.83S
GRANITE FALLS  PTCLDY    64  64 100 NW7       29.83S
CANBY          CLOUDY    64  63  97 NW10      29.85F
MARSHALL       PTCLDY    64  63  94 NW10      29.82R
REDWOOD FALLS  PTCLDY    66  65  96 NW6       29.80S
OLIVIA         CLOUDY    68  64  88 N6        29.80F
PIPESTONE      MOCLDY    66  64  94 NW5       29.85S FOG
WINDOM         MOCLDY    64  64 100 W5        29.82S
WORTHINGTON    PTCLDY    64  63  94 NW5       29.84S
JACKSON        MOCLDY    64  61  88 W3        29.82S
TRACY          PTCLDY    66  65  97 CALM      29.83S FOG
SLAYTON        CLEAR     64  64 100 CALM      29.85R FOG
$$
MNZ065>067-074>077-082>085-091>093-300800-
   South Central Minnesota

CITY           SKY/WX    TMP DP  RH WIND       PRES   REMARKS
MANKATO        CLOUDY    68  64  88 NW6       29.77S
NEW ULM        MOCLDY    64  64 100 NW7       29.79S
ST JAMES       MOCLDY    66  64  94 W5        29.80S
FAIRMONT       CLOUDY    63  61  94 NW5       29.80S
GLENCOE        CLOUDY    69  66  91 CALM      29.77F FOG
FARIBAULT      LGT RAIN  70  63  78 CALM      29.76F
OWATONNA       RAIN      70  66  88 CALM      29.76F
WASECA         RAIN      63  59  88 CALM      29.79R
ALBERT LEA     CLOUDY    64  64 100 W3        29.77F
$$
MNZ078>079-086>088-094>096-300800-
   Southeast Minnesota

CITY           SKY/WX    TMP DP  RH WIND       PRES   REMARKS
ROCHESTER      LGT RAIN  65  63  93 S6        29.77F
RED WING       DRIZZLE   66  64  94 CALM      29.73F
STANTON        LGT RAIN  67  65  93 CALM      29.74F
DODGE CENTER   DRIZZLE   68  66  94 W3        29.76F
WINONA         RAIN      68  68 100 CALM      29.76R
AUSTIN         LGT RAIN  64  64 100 S3        29.76F
PRESTON        CLOUDY    65  65 100 CALM      29.78S
$$
ABBREVIATIONS USED IN REMARKS
   TC - TEMPERATURES IN CELSIUS
  WCI - WIND CHILL INDEX
   HX - HEAT INDEX
  VSB - VISIBILITY
$$


USA.gov is the U.S. government's official web portal to all federal, state and local government web resources and services.